owner,sensor,date,latitude,longitude,vertical_datum,mass_concentration_of_oxygen_in_sea_water,qcFlag 
SCCF RECON,ioos:station:SCCF:56:1,2019-06-01T04:00:00Z,26.4645,-82.1044,1.897,6.07,11111222 
SCCF RECON,ioos:station:SCCF:56:1,2019-06-01T05:00:00Z,26.4645,-82.1044,1.941,5.56,11111222 
SCCF RECON,ioos:station:SCCF:56:1,2019-06-01T06:00:00Z,26.4645,-82.1044,1.921,5.7,11111222 
SCCF RECON,ioos:station:SCCF:56:1,2019-06-01T07:00:00Z,26.4645,-82.1044,1.834,5.94,11111222 
SCCF RECON,ioos:station:SCCF:56:1,2019-06-01T08:00:00Z,26.4645,-82.1044,1.737,5.69,11111222 
SCCF RECON,ioos:station:SCCF:56:1,2019-06-01T09:00:00Z,26.4645,-82.1044,1.664,5.31,11111222 
SCCF RECON,ioos:station:SCCF:56:1,2019-06-01T10:00:00Z,26.4645,-82.1044,1.614,4.59,11111222 
SCCF RECON,ioos:station:SCCF:56:1,2019-06-01T11:00:00Z,26.4645,-82.1044,1.626,3.41,11111222 
SCCF RECON,ioos:station:SCCF:56:1,2019-06-01T12:00:00Z,26.4645,-82.1044,1.719,3.26,11111222 
SCCF RECON,ioos:station:SCCF:56:1,2019-06-01T13:00:00Z,26.4645,-82.1044,1.834,2.88,11111222 
SCCF RECON,ioos:station:SCCF:56:1,2019-06-01T14:00:00Z,26.4645,-82.1044,1.949,2.93,11111222 
SCCF RECON,ioos:station:SCCF:56:1,2019-06-01T15:00:00Z,26.4645,-82.1044,2.046,3.57,11111222 
SCCF RECON,ioos:station:SCCF:56:1,2019-06-01T16:00:00Z,26.4645,-82.1044,2.09,5.29,11111222 
SCCF RECON,ioos:station:SCCF:56:1,2019-06-01T17:00:00Z,26.4645,-82.1044,2.047,6.23,11111222 
SCCF RECON,ioos:station:SCCF:56:1,2019-06-01T18:00:00Z,26.4645,-82.1044,1.949,6.77,11111222 
SCCF RECON,ioos:station:SCCF:56:1,2019-06-01T19:00:00Z,26.4645,-82.1044,1.808,6.52,11111222 
SCCF RECON,ioos:station:SCCF:56:1,2019-06-01T20:00:00Z,26.4645,-82.1044,1.678,4.81,11111222 
SCCF RECON,ioos:station:SCCF:56:1,2019-06-01T21:00:00Z,26.4645,-82.1044,1.551,5.07,11111222 
SCCF RECON,ioos:station:SCCF:56:1,2019-06-01T22:00:00Z,26.4645,-82.1044,1.428,5.73,11111222 
SCCF RECON,ioos:station:SCCF:56:1,2019-06-01T23:00:00Z,26.4645,-82.1044,1.329,6.09,11111222 
SCCF RECON,ioos:station:SCCF:56:1,2019-06-02T04:00:00Z,26.4645,-82.1044,1.792,4.88,11111222 
SCCF RECON,ioos:station:SCCF:56:1,2019-06-02T05:00:00Z,26.4645,-82.1044,1.877,5.5,11111222 
SCCF RECON,ioos:station:SCCF:56:1,2019-06-02T06:00:00Z,26.4645,-82.1044,1.908,5.42,11111222 
SCCF RECON,ioos:station:SCCF:56:1,2019-06-02T07:00:00Z,26.4645,-82.1044,1.858,5.51,11111222 
SCCF RECON,ioos:station:SCCF:56:1,2019-06-02T08:00:00Z,26.4645,-82.1044,1.755,5.78,11111222 
SCCF RECON,ioos:station:SCCF:56:1,2019-06-02T09:00:00Z,26.4645,-82.1044,1.684,5.64,11111222 
SCCF RECON,ioos:station:SCCF:56:1,2019-06-02T10:00:00Z,26.4645,-82.1044,1.646,5.14,11111222 
SCCF RECON,ioos:station:SCCF:56:1,2019-06-02T11:00:00Z,26.4645,-82.1044,1.661,4.59,11111222 
SCCF RECON,ioos:station:SCCF:56:1,2019-06-02T12:00:00Z,26.4645,-82.1044,1.71,3.93,11111222 
SCCF RECON,ioos:station:SCCF:56:1,2019-06-02T13:00:00Z,26.4645,-82.1044,1.82,2.94,11111222 
SCCF RECON,ioos:station:SCCF:56:1,2019-06-02T14:00:00Z,26.4645,-82.1044,1.94,2.71,11111222 
SCCF RECON,ioos:station:SCCF:56:1,2019-06-02T15:00:00Z,26.4645,-82.1044,2.034,2.66,11111222 
SCCF RECON,ioos:station:SCCF:56:1,2019-06-02T16:00:00Z,26.4645,-82.1044,2.104,3.96,11111222 
SCCF RECON,ioos:station:SCCF:56:1,2019-06-02T17:00:00Z,26.4645,-82.1044,2.124,5.16,11111222 
SCCF RECON,ioos:station:SCCF:56:1,2019-06-02T18:00:00Z,26.4645,-82.1044,2.066,6.0,11111222 
SCCF RECON,ioos:station:SCCF:56:1,2019-06-02T19:00:00Z,26.4645,-82.1044,1.932,6.99,11111222 
SCCF RECON,ioos:station:SCCF:56:1,2019-06-02T20:00:00Z,26.4645,-82.1044,1.77,6.19,11111222 
SCCF RECON,ioos:station:SCCF:56:1,2019-06-02T21:00:00Z,26.4645,-82.1044,1.619,6.65,11111222 
SCCF RECON,ioos:station:SCCF:56:1,2019-06-02T22:00:00Z,26.4645,-82.1044,1.478,6.97,11111222 
SCCF RECON,ioos:station:SCCF:56:1,2019-06-02T23:00:00Z,26.4645,-82.1044,1.363,7.38,11111222 
SCCF RECON,ioos:station:SCCF:56:1,2019-06-03T04:00:00Z,26.4645,-82.1044,1.72,6.23,11111222 
SCCF RECON,ioos:station:SCCF:56:1,2019-06-03T05:00:00Z,26.4645,-82.1044,1.834,5.71,11111222 
SCCF RECON,ioos:station:SCCF:56:1,2019-06-03T06:00:00Z,26.4645,-82.1044,1.916,5.49,11111222 
SCCF RECON,ioos:station:SCCF:56:1,2019-06-03T07:00:00Z,26.4645,-82.1044,1.933,5.15,11111222 
SCCF RECON,ioos:station:SCCF:56:1,2019-06-03T08:00:00Z,26.4645,-82.1044,1.868,5.18,11111222 
SCCF RECON,ioos:station:SCCF:56:1,2019-06-03T09:00:00Z,26.4645,-82.1044,1.788,5.4,11111222 
SCCF RECON,ioos:station:SCCF:56:1,2019-06-03T10:00:00Z,26.4645,-82.1044,1.745,5.31,11111222 
SCCF RECON,ioos:station:SCCF:56:1,2019-06-03T11:00:00Z,26.4645,-82.1044,1.721,4.77,11111222 
SCCF RECON,ioos:station:SCCF:56:1,2019-06-03T12:00:00Z,26.4645,-82.1044,1.723,3.92,11111222 
SCCF RECON,ioos:station:SCCF:56:1,2019-06-03T13:00:00Z,26.4645,-82.1044,1.791,3.82,11111222 
SCCF RECON,ioos:station:SCCF:56:1,2019-06-03T14:00:00Z,26.4645,-82.1044,1.922,3.31,11111222 
SCCF RECON,ioos:station:SCCF:56:1,2019-06-03T15:00:00Z,26.4645,-82.1044,2.041,2.96,11111222 
SCCF RECON,ioos:station:SCCF:56:1,2019-06-03T16:00:00Z,26.4645,-82.1044,2.13,3.97,11111222 
SCCF RECON,ioos:station:SCCF:56:1,2019-06-03T17:00:00Z,26.4645,-82.1044,2.183,5.33,11111222 
SCCF RECON,ioos:station:SCCF:56:1,2019-06-03T18:00:00Z,26.4645,-82.1044,2.139,7.01,11111222 
SCCF RECON,ioos:station:SCCF:56:1,2019-06-03T19:00:00Z,26.4645,-82.1044,2.032,6.71,11111222 
SCCF RECON,ioos:station:SCCF:56:1,2019-06-03T20:00:00Z,26.4645,-82.1044,1.883,7.47,11111222 
SCCF RECON,ioos:station:SCCF:56:1,2019-06-03T21:00:00Z,26.4645,-82.1044,1.732,7.36,11111222 
SCCF RECON,ioos:station:SCCF:56:1,2019-06-03T22:00:00Z,26.4645,-82.1044,1.584,7.98,11111222 
SCCF RECON,ioos:station:SCCF:56:1,2019-06-03T23:00:00Z,26.4645,-82.1044,1.444,8.22,11111222 
SCCF RECON,ioos:station:SCCF:56:1,2019-06-04T04:00:00Z,26.4645,-82.1044,1.62,5.91,11111222 
SCCF RECON,ioos:station:SCCF:56:1,2019-06-04T05:00:00Z,26.4645,-82.1044,1.763,5.77,11111222 
SCCF RECON,ioos:station:SCCF:56:1,2019-06-04T06:00:00Z,26.4645,-82.1044,1.871,4.63,11111222 
SCCF RECON,ioos:station:SCCF:56:1,2019-06-04T07:00:00Z,26.4645,-82.1044,1.944,4.93,11111222 
SCCF RECON,ioos:station:SCCF:56:1,2019-06-04T08:00:00Z,26.4645,-82.1044,1.942,5.16,11111222 
SCCF RECON,ioos:station:SCCF:56:1,2019-06-04T09:00:00Z,26.4645,-82.1044,1.869,5.23,11111222 
SCCF RECON,ioos:station:SCCF:56:1,2019-06-04T10:00:00Z,26.4645,-82.1044,1.792,4.75,11111222 
SCCF RECON,ioos:station:SCCF:56:1,2019-06-04T11:00:00Z,26.4645,-82.1044,1.763,4.22,11111222 
SCCF RECON,ioos:station:SCCF:56:1,2019-06-04T12:00:00Z,26.4645,-82.1044,1.753,3.31,11111222 
SCCF RECON,ioos:station:SCCF:56:1,2019-06-04T13:00:00Z,26.4645,-82.1044,1.779,2.86,11111222 
SCCF RECON,ioos:station:SCCF:56:1,2019-06-04T14:00:00Z,26.4645,-82.1044,1.851,3.52,11111222 
SCCF RECON,ioos:station:SCCF:56:1,2019-06-04T15:00:00Z,26.4645,-82.1044,1.972,3.74,11111222 
SCCF RECON,ioos:station:SCCF:56:1,2019-06-04T16:00:00Z,26.4645,-82.1044,2.094,3.52,11111222 
SCCF RECON,ioos:station:SCCF:56:1,2019-06-04T17:00:00Z,26.4645,-82.1044,2.167,4.52,11111222 
SCCF RECON,ioos:station:SCCF:56:1,2019-06-04T18:00:00Z,26.4645,-82.1044,2.183,5.64,11111222 
SCCF RECON,ioos:station:SCCF:56:1,2019-06-04T19:00:00Z,26.4645,-82.1044,2.118,6.48,11111222 
SCCF RECON,ioos:station:SCCF:56:1,2019-06-04T20:00:00Z,26.4645,-82.1044,1.988,6.95,11111222 
SCCF RECON,ioos:station:SCCF:56:1,2019-06-04T21:00:00Z,26.4645,-82.1044,1.825,7.36,11111222 
SCCF RECON,ioos:station:SCCF:56:1,2019-06-04T22:00:00Z,26.4645,-82.1044,1.679,6.94,11111222 
SCCF RECON,ioos:station:SCCF:56:1,2019-06-04T23:00:00Z,26.4645,-82.1044,1.557,7.25,11111222 
SCCF RECON,ioos:station:SCCF:56:1,2019-06-05T04:00:00Z,26.4645,-82.1044,1.439,5.99,11111222 
SCCF RECON,ioos:station:SCCF:56:1,2019-06-05T05:00:00Z,26.4645,-82.1044,1.59,5.05,11111222 
SCCF RECON,ioos:station:SCCF:56:1,2019-06-05T06:00:00Z,26.4645,-82.1044,1.727,5.0,11111222 
SCCF RECON,ioos:station:SCCF:56:1,2019-06-05T07:00:00Z,26.4645,-82.1044,1.847,4.78,11111222 
SCCF RECON,ioos:station:SCCF:56:1,2019-06-05T08:00:00Z,26.4645,-82.1044,1.907,4.48,11111222 
SCCF RECON,ioos:station:SCCF:56:1,2019-06-05T09:00:00Z,26.4645,-82.1044,1.907,4.48,11111222 
SCCF RECON,ioos:station:SCCF:56:1,2019-06-05T10:00:00Z,26.4645,-82.1044,1.861,3.92,11111222 
SCCF RECON,ioos:station:SCCF:56:1,2019-06-05T11:00:00Z,26.4645,-82.1044,1.789,3.67,11111222 
SCCF RECON,ioos:station:SCCF:56:1,2019-06-05T12:00:00Z,26.4645,-82.1044,1.753,3.45,11111222 
SCCF RECON,ioos:station:SCCF:56:1,2019-06-05T13:00:00Z,26.4645,-82.1044,1.754,3.13,11111222 
SCCF RECON,ioos:station:SCCF:56:1,2019-06-05T14:00:00Z,26.4645,-82.1044,1.819,3.27,11111222 
SCCF RECON,ioos:station:SCCF:56:1,2019-06-05T15:00:00Z,26.4645,-82.1044,1.913,3.38,11111222 
SCCF RECON,ioos:station:SCCF:56:1,2019-06-05T16:00:00Z,26.4645,-82.1044,2.035,5.33,11111222 
SCCF RECON,ioos:station:SCCF:56:1,2019-06-05T17:00:00Z,26.4645,-82.1044,2.128,4.87,11111222 
SCCF RECON,ioos:station:SCCF:56:1,2019-06-05T18:00:00Z,26.4645,-82.1044,2.164,5.74,11111222 
SCCF RECON,ioos:station:SCCF:56:1,2019-06-05T19:00:00Z,26.4645,-82.1044,2.145,6.56,11111222 
SCCF RECON,ioos:station:SCCF:56:1,2019-06-05T20:00:00Z,26.4645,-82.1044,2.078,5.96,11111222 
SCCF RECON,ioos:station:SCCF:56:1,2019-06-05T21:00:00Z,26.4645,-82.1044,1.94,6.84,11111222 
SCCF RECON,ioos:station:SCCF:56:1,2019-06-05T22:00:00Z,26.4645,-82.1044,1.79,7.15,11111222 
SCCF RECON,ioos:station:SCCF:56:1,2019-06-05T23:00:00Z,26.4645,-82.1044,1.656,6.14,11111222 
SCCF RECON,ioos:station:SCCF:56:1,2019-06-06T04:00:00Z,26.4645,-82.1044,1.293,3.73,11111222 
SCCF RECON,ioos:station:SCCF:56:1,2019-06-06T05:00:00Z,26.4645,-82.1044,1.462,5.03,11111222 
SCCF RECON,ioos:station:SCCF:56:1,2019-06-06T06:00:00Z,26.4645,-82.1044,1.607,5.3,11111222 
SCCF RECON,ioos:station:SCCF:56:1,2019-06-06T07:00:00Z,26.4645,-82.1044,1.736,4.15,11111222 
SCCF RECON,ioos:station:SCCF:56:1,2019-06-06T08:00:00Z,26.4645,-82.1044,1.821,4.19,11111222 
SCCF RECON,ioos:station:SCCF:56:1,2019-06-06T09:00:00Z,26.4645,-82.1044,1.858,3.81,11111222 
SCCF RECON,ioos:station:SCCF:56:1,2019-06-06T10:00:00Z,26.4645,-82.1044,1.851,4.61,11111222 
SCCF RECON,ioos:station:SCCF:56:1,2019-06-06T11:00:00Z,26.4645,-82.1044,1.817,3.9,11111222 
SCCF RECON,ioos:station:SCCF:56:1,2019-06-06T12:00:00Z,26.4645,-82.1044,1.77,3.37,11111222 
SCCF RECON,ioos:station:SCCF:56:1,2019-06-06T13:00:00Z,26.4645,-82.1044,1.727,3.15,11111222 
SCCF RECON,ioos:station:SCCF:56:1,2019-06-06T14:00:00Z,26.4645,-82.1044,1.741,2.95,11111222 
SCCF RECON,ioos:station:SCCF:56:1,2019-06-06T15:00:00Z,26.4645,-82.1044,1.826,2.86,11111222 
SCCF RECON,ioos:station:SCCF:56:1,2019-06-06T16:00:00Z,26.4645,-82.1044,1.915,3.76,11111222 
SCCF RECON,ioos:station:SCCF:56:1,2019-06-06T17:00:00Z,26.4645,-82.1044,2.017,5.43,11111222 
SCCF RECON,ioos:station:SCCF:56:1,2019-06-06T18:00:00Z,26.4645,-82.1044,2.097,5.72,11111222 
SCCF RECON,ioos:station:SCCF:56:1,2019-06-06T19:00:00Z,26.4645,-82.1044,2.129,5.81,11111222 
SCCF RECON,ioos:station:SCCF:56:1,2019-06-06T20:00:00Z,26.4645,-82.1044,2.117,6.39,11111222 
SCCF RECON,ioos:station:SCCF:56:1,2019-06-06T21:00:00Z,26.4645,-82.1044,2.052,6.32,11111222 
SCCF RECON,ioos:station:SCCF:56:1,2019-06-06T22:00:00Z,26.4645,-82.1044,1.924,6.78,11111222 
SCCF RECON,ioos:station:SCCF:56:1,2019-06-06T23:00:00Z,26.4645,-82.1044,1.774,6.72,11111222 
SCCF RECON,ioos:station:SCCF:56:1,2019-06-07T04:00:00Z,26.4645,-82.1044,1.234,2.64,11111222 
SCCF RECON,ioos:station:SCCF:56:1,2019-06-07T05:00:00Z,26.4645,-82.1044,1.351,2.22,11111222 
SCCF RECON,ioos:station:SCCF:56:1,2019-06-07T06:00:00Z,26.4645,-82.1044,1.503,2.58,11111222 
SCCF RECON,ioos:station:SCCF:56:1,2019-06-07T07:00:00Z,26.4645,-82.1044,1.642,2.56,11111222 
SCCF RECON,ioos:station:SCCF:56:1,2019-06-07T08:00:00Z,26.4645,-82.1044,1.779,1.49,11111222 
SCCF RECON,ioos:station:SCCF:56:1,2019-06-07T09:00:00Z,26.4645,-82.1044,1.868,1.76,11111222 
SCCF RECON,ioos:station:SCCF:56:1,2019-06-07T10:00:00Z,26.4645,-82.1044,1.901,2.77,11111222 
SCCF RECON,ioos:station:SCCF:56:1,2019-06-07T11:00:00Z,26.4645,-82.1044,1.876,3.49,11111222 
SCCF RECON,ioos:station:SCCF:56:1,2019-06-07T12:00:00Z,26.4645,-82.1044,1.81,2.64,11111222 
SCCF RECON,ioos:station:SCCF:56:1,2019-06-07T13:00:00Z,26.4645,-82.1044,1.757,2.4,11111222 
SCCF RECON,ioos:station:SCCF:56:1,2019-06-07T14:00:00Z,26.4645,-82.1044,1.736,2.12,11111222 
SCCF RECON,ioos:station:SCCF:56:1,2019-06-07T15:00:00Z,26.4645,-82.1044,1.769,2.42,11111222 
SCCF RECON,ioos:station:SCCF:56:1,2019-06-07T16:00:00Z,26.4645,-82.1044,1.851,2.1,11111222 
SCCF RECON,ioos:station:SCCF:56:1,2019-06-07T17:00:00Z,26.4645,-82.1044,1.935,3.15,11111222 
SCCF RECON,ioos:station:SCCF:56:1,2019-06-07T18:00:00Z,26.4645,-82.1044,2.017,4.66,11111222 
SCCF RECON,ioos:station:SCCF:56:1,2019-06-07T19:00:00Z,26.4645,-82.1044,2.064,4.9,11111222 
SCCF RECON,ioos:station:SCCF:56:1,2019-06-07T20:00:00Z,26.4645,-82.1044,2.065,4.95,11111222 
SCCF RECON,ioos:station:SCCF:56:1,2019-06-07T21:00:00Z,26.4645,-82.1044,2.056,5.6,11111222 
SCCF RECON,ioos:station:SCCF:56:1,2019-06-07T22:00:00Z,26.4645,-82.1044,2.006,6.38,11111222 
SCCF RECON,ioos:station:SCCF:56:1,2019-06-07T23:00:00Z,26.4645,-82.1044,1.89,6.13,11111222 
SCCF RECON,ioos:station:SCCF:56:1,2019-06-08T04:00:00Z,26.4645,-82.1044,1.281,2.63,11111222 
SCCF RECON,ioos:station:SCCF:56:1,2019-06-08T05:00:00Z,26.4645,-82.1044,1.279,1.48,11111222 
SCCF RECON,ioos:station:SCCF:56:1,2019-06-08T06:00:00Z,26.4645,-82.1044,1.435,1.62,11111222 
SCCF RECON,ioos:station:SCCF:56:1,2019-06-08T07:00:00Z,26.4645,-82.1044,1.565,2.62,11111222 
SCCF RECON,ioos:station:SCCF:56:1,2019-06-08T08:00:00Z,26.4645,-82.1044,1.665,2.19,11111222 
SCCF RECON,ioos:station:SCCF:56:1,2019-06-08T09:00:00Z,26.4645,-82.1044,1.759,1.12,11111222 
SCCF RECON,ioos:station:SCCF:56:1,2019-06-08T10:00:00Z,26.4645,-82.1044,1.865,1.41,11111222 
SCCF RECON,ioos:station:SCCF:56:1,2019-06-08T11:00:00Z,26.4645,-82.1044,1.917,1.93,11111222 
SCCF RECON,ioos:station:SCCF:56:1,2019-06-08T12:00:00Z,26.4645,-82.1044,1.892,2.0,11111222 
SCCF RECON,ioos:station:SCCF:56:1,2019-06-08T13:00:00Z,26.4645,-82.1044,1.843,2.07,11111222 
SCCF RECON,ioos:station:SCCF:56:1,2019-06-08T14:00:00Z,26.4645,-82.1044,1.799,1.87,11111222 
SCCF RECON,ioos:station:SCCF:56:1,2019-06-08T15:00:00Z,26.4645,-82.1044,1.773,2.09,11111222 
SCCF RECON,ioos:station:SCCF:56:1,2019-06-08T16:00:00Z,26.4645,-82.1044,1.744,1.96,11111222 
SCCF RECON,ioos:station:SCCF:56:1,2019-06-08T17:00:00Z,26.4645,-82.1044,1.789,3.1,11111222 
SCCF RECON,ioos:station:SCCF:56:1,2019-06-08T18:00:00Z,26.4645,-82.1044,1.863,3.7,11111222 
SCCF RECON,ioos:station:SCCF:56:1,2019-06-08T19:00:00Z,26.4645,-82.1044,1.951,5.38,11111222 
SCCF RECON,ioos:station:SCCF:56:1,2019-06-09T04:00:00Z,26.4645,-82.1044,1.43,3.22,11111222 
SCCF RECON,ioos:station:SCCF:56:1,2019-06-09T05:00:00Z,26.4645,-82.1044,1.367,2.33,11111222 
SCCF RECON,ioos:station:SCCF:56:1,2019-06-09T06:00:00Z,26.4645,-82.1044,1.36,1.56,11111222 
SCCF RECON,ioos:station:SCCF:56:1,2019-06-09T07:00:00Z,26.4645,-82.1044,1.496,1.62,11111222 
SCCF RECON,ioos:station:SCCF:56:1,2019-06-09T08:00:00Z,26.4645,-82.1044,1.644,1.57,11111222 
SCCF RECON,ioos:station:SCCF:56:1,2019-06-09T09:00:00Z,26.4645,-82.1044,1.761,0.97,11111222 
SCCF RECON,ioos:station:SCCF:56:1,2019-06-09T10:00:00Z,26.4645,-82.1044,1.891,1.53,11111222 
SCCF RECON,ioos:station:SCCF:56:1,2019-06-09T11:00:00Z,26.4645,-82.1044,1.922,2.0,11111222 
SCCF RECON,ioos:station:SCCF:56:1,2019-06-09T12:00:00Z,26.4645,-82.1044,1.948,2.32,11111222 
SCCF RECON,ioos:station:SCCF:56:1,2019-06-09T13:00:00Z,26.4645,-82.1044,1.937,2.81,11111222 
SCCF RECON,ioos:station:SCCF:56:1,2019-06-09T14:00:00Z,26.4645,-82.1044,1.87,2.44,11111222 
SCCF RECON,ioos:station:SCCF:56:1,2019-06-09T15:00:00Z,26.4645,-82.1044,1.809,2.63,11111222 
SCCF RECON,ioos:station:SCCF:56:1,2019-06-09T16:00:00Z,26.4645,-82.1044,1.763,2.63,11111222 
SCCF RECON,ioos:station:SCCF:56:1,2019-06-09T17:00:00Z,26.4645,-82.1044,1.766,3.23,11111222 
SCCF RECON,ioos:station:SCCF:56:1,2019-06-09T18:00:00Z,26.4645,-82.1044,1.825,4.41,11111222 
SCCF RECON,ioos:station:SCCF:56:1,2019-06-09T19:00:00Z,26.4645,-82.1044,1.864,6.65,11111222 
SCCF RECON,ioos:station:SCCF:56:1,2019-06-09T20:00:00Z,26.4645,-82.1044,1.921,8.08,11111222 
SCCF RECON,ioos:station:SCCF:56:1,2019-06-09T21:00:00Z,26.4645,-82.1044,1.98,7.16,11111222 
SCCF RECON,ioos:station:SCCF:56:1,2019-06-09T22:00:00Z,26.4645,-82.1044,1.992,7.46,11111222 
SCCF RECON,ioos:station:SCCF:56:1,2019-06-09T23:00:00Z,26.4645,-82.1044,1.996,7.34,11111222 
SCCF RECON,ioos:station:SCCF:56:1,2019-06-10T04:00:00Z,26.4645,-82.1044,1.557,3.74,11111222 
SCCF RECON,ioos:station:SCCF:56:1,2019-06-10T05:00:00Z,26.4645,-82.1044,1.475,2.87,11111222 
SCCF RECON,ioos:station:SCCF:56:1,2019-06-10T06:00:00Z,26.4645,-82.1044,1.469,2.39,11111222 
SCCF RECON,ioos:station:SCCF:56:1,2019-06-10T07:00:00Z,26.4645,-82.1044,1.501,2.34,11111222 
SCCF RECON,ioos:station:SCCF:56:1,2019-06-10T08:00:00Z,26.4645,-82.1044,1.456,2.38,11111222 
SCCF RECON,ioos:station:SCCF:56:1,2019-06-10T09:00:00Z,26.4645,-82.1044,1.576,1.89,11111222 
SCCF RECON,ioos:station:SCCF:56:1,2019-06-10T10:00:00Z,26.4645,-82.1044,1.734,1.32,11111222 
SCCF RECON,ioos:station:SCCF:56:1,2019-06-10T11:00:00Z,26.4645,-82.1044,1.829,1.96,11111222 
SCCF RECON,ioos:station:SCCF:56:1,2019-06-10T12:00:00Z,26.4645,-82.1044,1.884,2.8,11111222 
SCCF RECON,ioos:station:SCCF:56:1,2019-06-10T13:00:00Z,26.4645,-82.1044,1.92,3.38,11111222 
SCCF RECON,ioos:station:SCCF:56:1,2019-06-10T14:00:00Z,26.4645,-82.1044,1.892,3.5,11111222 
SCCF RECON,ioos:station:SCCF:56:1,2019-06-10T15:00:00Z,26.4645,-82.1044,1.815,3.08,11111222 
SCCF RECON,ioos:station:SCCF:56:1,2019-06-10T16:00:00Z,26.4645,-82.1044,1.744,3.12,11111222 
SCCF RECON,ioos:station:SCCF:56:1,2019-06-10T17:00:00Z,26.4645,-82.1044,1.64,3.0,11111222 
SCCF RECON,ioos:station:SCCF:56:1,2019-06-10T18:00:00Z,26.4645,-82.1044,1.563,3.05,11111222 
SCCF RECON,ioos:station:SCCF:56:1,2019-06-10T19:00:00Z,26.4645,-82.1044,1.542,3.08,11111222 
SCCF RECON,ioos:station:SCCF:56:1,2019-06-10T20:00:00Z,26.4645,-82.1044,1.62,3.82,11111222 
SCCF RECON,ioos:station:SCCF:56:1,2019-06-10T21:00:00Z,26.4645,-82.1044,1.729,6.19,11111222 
SCCF RECON,ioos:station:SCCF:56:1,2019-06-10T22:00:00Z,26.4645,-82.1044,1.804,7.58,11111222 
SCCF RECON,ioos:station:SCCF:56:1,2019-06-10T23:00:00Z,26.4645,-82.1044,1.856,7.47,11111222 
SCCF RECON,ioos:station:SCCF:56:1,2019-06-11T04:00:00Z,26.4645,-82.1044,1.644,5.8,11111222 
SCCF RECON,ioos:station:SCCF:56:1,2019-06-11T05:00:00Z,26.4645,-82.1044,1.54,4.94,11111222 
SCCF RECON,ioos:station:SCCF:56:1,2019-06-11T06:00:00Z,26.4645,-82.1044,1.449,3.93,11111222 
SCCF RECON,ioos:station:SCCF:56:1,2019-06-11T07:00:00Z,26.4645,-82.1044,1.404,2.67,11111222 
SCCF RECON,ioos:station:SCCF:56:1,2019-06-11T08:00:00Z,26.4645,-82.1044,1.469,2.19,11111222 
SCCF RECON,ioos:station:SCCF:56:1,2019-06-11T09:00:00Z,26.4645,-82.1044,1.58,2.63,11111222 
SCCF RECON,ioos:station:SCCF:56:1,2019-06-11T10:00:00Z,26.4645,-82.1044,1.715,1.45,11111222 
SCCF RECON,ioos:station:SCCF:56:1,2019-06-11T11:00:00Z,26.4645,-82.1044,1.814,0.86,11111222 
SCCF RECON,ioos:station:SCCF:56:1,2019-06-11T12:00:00Z,26.4645,-82.1044,1.888,1.07,11111222 
SCCF RECON,ioos:station:SCCF:56:1,2019-06-11T13:00:00Z,26.4645,-82.1044,1.954,1.59,11111222 
SCCF RECON,ioos:station:SCCF:56:1,2019-06-11T14:00:00Z,26.4645,-82.1044,1.986,2.31,11111222 
SCCF RECON,ioos:station:SCCF:56:1,2019-06-11T15:00:00Z,26.4645,-82.1044,1.927,3.02,11111222 
SCCF RECON,ioos:station:SCCF:56:1,2019-06-11T16:00:00Z,26.4645,-82.1044,1.799,2.96,11111222 
SCCF RECON,ioos:station:SCCF:56:1,2019-06-11T17:00:00Z,26.4645,-82.1044,1.682,3.38,11111222 
SCCF RECON,ioos:station:SCCF:56:1,2019-06-11T18:00:00Z,26.4645,-82.1044,1.598,3.12,11111222 
SCCF RECON,ioos:station:SCCF:56:1,2019-06-11T21:00:00Z,26.4645,-82.1044,1.53,5.21,11111222 
SCCF RECON,ioos:station:SCCF:56:1,2019-06-11T22:00:00Z,26.4645,-82.1044,1.642,6.54,11111222 
SCCF RECON,ioos:station:SCCF:56:1,2019-06-11T23:00:00Z,26.4645,-82.1044,1.722,6.14,11111222 
SCCF RECON,ioos:station:SCCF:56:1,2019-06-12T04:00:00Z,26.4645,-82.1044,1.829,5.88,11111222 
SCCF RECON,ioos:station:SCCF:56:1,2019-06-12T05:00:00Z,26.4645,-82.1044,1.725,5.83,11111222 
SCCF RECON,ioos:station:SCCF:56:1,2019-06-12T06:00:00Z,26.4645,-82.1044,1.626,4.5,11111222 
SCCF RECON,ioos:station:SCCF:56:1,2019-06-12T07:00:00Z,26.4645,-82.1044,1.528,3.87,11111222 
SCCF RECON,ioos:station:SCCF:56:1,2019-06-12T08:00:00Z,26.4645,-82.1044,1.48,2.85,11111222 
SCCF RECON,ioos:station:SCCF:56:1,2019-06-12T09:00:00Z,26.4645,-82.1044,1.559,2.53,11111222 
SCCF RECON,ioos:station:SCCF:56:1,2019-06-12T10:00:00Z,26.4645,-82.1044,1.709,2.25,11111222 
SCCF RECON,ioos:station:SCCF:56:1,2019-06-12T11:00:00Z,26.4645,-82.1044,1.839,1.68,11111222 
SCCF RECON,ioos:station:SCCF:56:1,2019-06-12T12:00:00Z,26.4645,-82.1044,1.941,1.52,11111222 
SCCF RECON,ioos:station:SCCF:56:1,2019-06-12T13:00:00Z,26.4645,-82.1044,1.992,2.36,11111222 
SCCF RECON,ioos:station:SCCF:56:1,2019-06-12T14:00:00Z,26.4645,-82.1044,2.005,2.67,11111222 
SCCF RECON,ioos:station:SCCF:56:1,2019-06-12T15:00:00Z,26.4645,-82.1044,1.972,3.62,11111222 
SCCF RECON,ioos:station:SCCF:56:1,2019-06-12T16:00:00Z,26.4645,-82.1044,1.912,3.53,11111222 
SCCF RECON,ioos:station:SCCF:56:1,2019-06-12T17:00:00Z,26.4645,-82.1044,1.806,3.45,11111222 
SCCF RECON,ioos:station:SCCF:56:1,2019-06-12T18:00:00Z,26.4645,-82.1044,1.681,3.84,11111222 
SCCF RECON,ioos:station:SCCF:56:1,2019-06-12T19:00:00Z,26.4645,-82.1044,1.588,3.92,11111222 
SCCF RECON,ioos:station:SCCF:56:1,2019-06-12T20:00:00Z,26.4645,-82.1044,1.494,4.31,11111222 
SCCF RECON,ioos:station:SCCF:56:1,2019-06-12T21:00:00Z,26.4645,-82.1044,1.426,5.45,11111222 
SCCF RECON,ioos:station:SCCF:56:1,2019-06-12T22:00:00Z,26.4645,-82.1044,1.404,7.41,11111222 
SCCF RECON,ioos:station:SCCF:56:1,2019-06-12T23:00:00Z,26.4645,-82.1044,1.497,7.15,11111222 
SCCF RECON,ioos:station:SCCF:56:1,2019-06-13T04:00:00Z,26.4645,-82.1044,1.886,6.28,11111222 
SCCF RECON,ioos:station:SCCF:56:1,2019-06-13T05:00:00Z,26.4645,-82.1044,1.796,5.99,11111222 
SCCF RECON,ioos:station:SCCF:56:1,2019-06-13T06:00:00Z,26.4645,-82.1044,1.695,5.22,11111222 
SCCF RECON,ioos:station:SCCF:56:1,2019-06-13T07:00:00Z,26.4645,-82.1044,1.627,5.59,11111222 
SCCF RECON,ioos:station:SCCF:56:1,2019-06-13T08:00:00Z,26.4645,-82.1044,1.597,4.71,11111222 
SCCF RECON,ioos:station:SCCF:56:1,2019-06-13T09:00:00Z,26.4645,-82.1044,1.589,3.55,11111222 
SCCF RECON,ioos:station:SCCF:56:1,2019-06-13T10:00:00Z,26.4645,-82.1044,1.633,3.37,11111222 
SCCF RECON,ioos:station:SCCF:56:1,2019-06-13T11:00:00Z,26.4645,-82.1044,1.746,2.77,11111222 
SCCF RECON,ioos:station:SCCF:56:1,2019-06-13T12:00:00Z,26.4645,-82.1044,1.85,1.6,11111222 
SCCF RECON,ioos:station:SCCF:56:1,2019-06-13T13:00:00Z,26.4645,-82.1044,1.959,1.48,11111222 
SCCF RECON,ioos:station:SCCF:56:1,2019-06-13T14:00:00Z,26.4645,-82.1044,2.045,1.83,11111222 
SCCF RECON,ioos:station:SCCF:56:1,2019-06-13T15:00:00Z,26.4645,-82.1044,2.102,2.49,11111222 
SCCF RECON,ioos:station:SCCF:56:1,2019-06-13T16:00:00Z,26.4645,-82.1044,2.033,3.16,11111222 
SCCF RECON,ioos:station:SCCF:56:1,2019-06-13T17:00:00Z,26.4645,-82.1044,1.874,4.13,11111222 
SCCF RECON,ioos:station:SCCF:56:1,2019-06-13T18:00:00Z,26.4645,-82.1044,1.729,4.43,11111222 
SCCF RECON,ioos:station:SCCF:56:1,2019-06-13T19:00:00Z,26.4645,-82.1044,1.607,4.11,11111222 
SCCF RECON,ioos:station:SCCF:56:1,2019-06-13T20:00:00Z,26.4645,-82.1044,1.487,4.55,11111222 
SCCF RECON,ioos:station:SCCF:56:1,2019-06-13T21:00:00Z,26.4645,-82.1044,1.387,5.21,11111222 
SCCF RECON,ioos:station:SCCF:56:1,2019-06-13T22:00:00Z,26.4645,-82.1044,1.335,5.46,11111222 
SCCF RECON,ioos:station:SCCF:56:1,2019-06-13T23:00:00Z,26.4645,-82.1044,1.408,6.69,11111222 
SCCF RECON,ioos:station:SCCF:56:1,2019-06-14T04:00:00Z,26.4645,-82.1044,1.761,4.73,11111222 
SCCF RECON,ioos:station:SCCF:56:1,2019-06-14T05:00:00Z,26.4645,-82.1044,1.826,4.22,11111222 
SCCF RECON,ioos:station:SCCF:56:1,2019-06-14T06:00:00Z,26.4645,-82.1044,1.801,4.22,11111222 